Regional Weather Roundup
Issued by NWS Sioux Falls, SD

Home | Current Version | Previous Version | Text Only | Print | Product List | Glossary Off
Versions: 1 2 3 4 5 6 7 8 9 10 11 12 13 14 15 16 17 18 19 20 21 22 23 24 25 26 27 28 29 30 31 32 33 34 35 36 37 38 39 40 41 42 43 44 45 46 47 48 49 50

000
ASUS43 KFSD 051610
RWRFSD

WEATHER ROUNDUP FOR SE SOUTH DAKOTA/SW MINNESOTA/NW IOWA
NATIONAL WEATHER SERVICE SIOUX FALLS SD
1000 AM CST THU MAR 05 2015

NOTE: "FAIR" INDICATES FEW OR NO CLOUDS BELOW 12,000 FEET WITH NO
SIGNIFICANT WEATHER AND OR OBSTRUCTIONS TO VISIBILITY.


SDZ038>040-050-052>070-051700-
SOUTHEAST SOUTH DAKOTA

CITY           SKY/WX    TMP DP  RH WIND       PRES   REMARKS
CHAMBERLAIN    SUNNY     13   4  67 S10       30.34S WCI   0
HURON          SUNNY      7  -2  66 S13       30.40S WCI  -9
MADISON        FAIR       5   0  78 S12       30.40R WCI -11
MITCHELL       SUNNY     11   1  64 S14       30.42F WCI  -5
SIOUX FALLS    SUNNY      6  -3  66 S9        30.45F WCI  -8
WINNER         FAIR      16   3  56 S10       30.29S WCI   4
YANKTON        SUNNY     12   3  67 SE6       30.48F WCI   3
$$

MNZ071-072-080-081-089-090-097-098-051700-
SOUTHWEST MINNESOTA

CITY           SKY/WX    TMP DP  RH WIND       PRES   REMARKS
FAIRMONT       SUNNY      5  -6  61 W5        30.49F WCI  -4
JACKSON        SUNNY      5  -8  56 SW9       30.47S WCI  -9
LUVERNE        SUNNY      5  -4  66 S8        30.47F WCI  -8
MARSHALL       SUNNY      5  -6  61 S3        30.47F
MONTEVIDEO     SUNNY      7   0  72 SW5       30.48F WCI  -2
PIPESTONE      SUNNY      1  -8  66 SW10      30.41S WCI -14
REDWOOD FALLS  SUNNY      2  -7  66 S9        30.50S WCI -13
TRACY          SUNNY      5  -6  61 SW13      30.46S WCI -12
WINDOM         SUNNY      3  -8  60 SW10      30.46S WCI -12
WORTHINGTON    SUNNY      3  -8  60 SW10      30.47S WCI -12
$$

IAZ001>003-012>014-020>022-031-032-NEZ013-014-SDZ071-051700-
NORTHWEST IOWA

CITY           SKY/WX    TMP DP  RH WIND       PRES   REMARKS
CHEROKEE       SUNNY      5  -5  62 SW5       30.53S WCI  -4
DENISON        SUNNY      9  -4  56 W5        30.53S WCI   0
ESTHERVILLE    SUNNY      3  -7  63 SW9       30.49F WCI -12
LE MARS        SUNNY      9   0  66 S8        30.52F WCI  -4
ORANGE CITY    SUNNY      9  -2  61 S6        30.48S WCI  -1
SHELDON        SUNNY      5  -6  61 S6        30.48S WCI  -6
SIOUX CITY     SUNNY     11   1  64 VRB6      30.54S WCI   1
SPENCER        SUNNY      5  -7  57 SW6       30.51R WCI  -6
STORM LAKE     SUNNY      5  -8  56 S3        30.51S
$$

ABBREVIATIONS USED IN REMARKS
   TC - TEMPERATURE IN CELSIUS
  WCI - WIND CHILL INDEX
   HX - HEAT INDEX
  VSB - VISIBILITY



USA.gov is the U.S. government's official web portal to all federal, state and local government web resources and services.